This is the latest recevied weather packets stored in our database for station/object WABI. If no packets are shown the sender has not sent any weather packets the latest 10 day(s).
| Time | Temp. | Humidity | Pressure | Rain* | Wind** | Luminosity | Snow |
|---|---|---|---|---|---|---|---|
| 1787551197 | 31.11° C | 59% | 1011 hPa | 0 mm | - | - | - |
| 1787549220 | 31.11° C | 59% | 1011 hPa | 0 mm | - | - | - |
| 1787547386 | 31.11° C | 55% | 1011 hPa | 0 mm | - | - | - |
| 1787545267 | 32.22° C | 52% | 1012 hPa | 0 mm | - | - | - |
| 1787543293 | 32.22° C | 52% | 1012 hPa | 0 mm | - | - | - |
| 1787541318 | 31.11° C | 52% | 1013 hPa | 0 mm | - | - | - |
| 1787539337 | 31.11° C | 49% | 1013 hPa | 0 mm | - | - | - |
| 1787537360 | 31.11° C | 49% | 1014 hPa | 0 mm | - | - | - |
| 1787535386 | 28.89° C | 55% | 1014 hPa | 0 mm | - | - | - |
| 1787533400 | 27.78° C | 55% | 1014 hPa | 0 mm | - | - | - |
| 1787531425 | 26.11° C | 65% | 1014 hPa | 0 mm | - | - | - |
| 1787529447 | 22.22° C | 83% | 1014 hPa | 0 mm | - | - | - |
| 1787527468 | 20° C | 94% | 1013 hPa | 0 mm | - | - | - |
| 1787525473 | 20° C | 94% | 1013 hPa | 0 mm | - | - | - |
| 1787523507 | 20° C | 94% | 1013 hPa | 0 mm | - | - | - |
| 1787509759 | 23.89° C | 83% | 1013 hPa | 0 mm | - | - | - |
| 1787507762 | 23.89° C | 83% | 1013 hPa | 0 mm | - | - | - |
| 1787505790 | 23.89° C | 83% | 1013 hPa | 0 mm | - | - | - |
| 1787503817 | 23.89° C | 83% | 1013 hPa | 0 mm | - | - | - |
| 1787501847 | 23.89° C | 83% | 1013 hPa | 0 mm | - | - | - |
| 1787499863 | 22.78° C | 83% | 1013 hPa | 0 mm | - | - | - |
| 1787497866 | 22.78° C | 83% | 1013 hPa | 0 mm | - | - | - |
| 1787490909 | 25° C | 83% | 1010 hPa | 0 mm | - | - | - |
| 1787488806 | 25° C | 83% | 1010 hPa | 0 mm | - | - | - |
| 1787486648 | 25° C | 83% | 1010 hPa | 0 mm | - | - | - |
* Rain latest hour (hover to see other rain measurements)
** Current wind speed in m/s (hover to see current wind gust speed)